Powrót do katalogu

OPS 1292

AktywnyMilitariaPO
NORAD 11852·PAYLOAD·🇺🇸 United States

Wystrzelony Jun 18, 1980 z Vandenberg Space Force Base

Loading…

Następne Przeloty (najbliższe 24 godziny)

TLE

ŚwieżeSource: Space-Track

Epoka: Sep 14, 2026, 11:04 UTC

1 11852U 80052C   26257.46168945 -.00000007  00000-0  46804-4 0  9991
2 11852  96.6169 148.7717 0003518  48.7206 311.4202 12.83722732109432

Śledź OPS 1292 w czasie rzeczywistym z AllMySat

Download on the App Store